Theta_e
350 348 349 347 340 337 332 331 335 341 343 343 343 345 346 340 330 331 336 337 343 346 345 344 342 342 337 331 331 331 325 324 327 333 340 342 341 337 329 325 325 326 326
349 348 348 346 340 337 332 329 331 338 342 344 345 346 345 337 330 329 336 336 341 342 342 341 339 334 328 326 327 326 326 329 330 336 340 341 340 339 336 329 326 325 326
349 347 348 345 340 336 332 329 327 332 339 343 346 346 342 337 330 330 335 338 341 340 340 340 338 334 329 327 327 327 327 328 328 329 331 330 334 333 335 330 327 327 327
349 346 347 345 340 336 332 330 326 327 334 340 342 342 340 337 329 332 336 338 338 339 340 338 335 332 329 327 328 328 327 337 336 335 334 331 334 332 333 334 332 332 332
351 346 347 345 340 337 333 330 326 325 329 335 339 340 339 334 329 332 336 336 339 338 339 340 336 329 328 329 329 333 338 344 345 346 347 346 342 340 340 340 340 340 340
349 346 347 345 341 336 333 331 326 324 327 333 337 337 335 331 329 331 334 337 339 338 338 340 333 327 327 329 335 340 342 340 346 344 342 345 345 343 342 339 337 337 339
350 346 347 345 341 337 334 332 327 324 328 331 333 335 334 331 330 331 335 337 338 336 339 334 328 327 327 328 331 333 334 339 342 338 346 344 345 343 339 336 337 338 338
352 351 348 345 341 338 335 332 328 326 327 328 332 336 335 331 331 334 338 337 335 339 334 326 326 326 327 328 328 328 330 336 335 334 344 344 342 339 337 337 337 338 339
353 353 351 347 342 338 336 333 330 327 327 328 335 338 334 332 332 335 337 337 340 336 326 325 325 326 327 328 327 326 327 329 329 338 345 345 340 337 336 337 336 335 336
353 354 354 352 345 339 337 334 331 329 329 331 337 336 333 334 340 341 340 341 338 328 328 326 324 324 326 327 326 326 325 326 328 340 341 341 337 337 336 334 332 331 331
353 353 352 353 351 345 339 336 333 330 330 331 336 336 337 342 342 342 340 336 331 330 327 324 323 324 324 323 323 323 323 325 329 334 338 339 338 337 334 331 329 330 330
353 352 352 352 354 348 344 342 336 333 332 333 336 338 340 343 342 340 336 334 332 329 327 325 324 323 323 325 327 331 333 334 337 336 338 338 339 336 332 328 328 329 330
352 351 351 350 353 349 347 346 342 338 336 334 336 338 340 343 344 341 338 336 333 330 328 325 324 323 327 331 335 339 340 341 340 339 339 339 339 336 331 328 328 327 326
353 349 349 350 351 351 348 346 346 342 338 337 337 340 342 347 344 341 338 335 332 330 328 323 323 324 330 336 339 341 341 342 341 341 340 340 338 335 331 328 326 326 325
353 352 350 350 349 349 350 349 347 344 340 336 335 339 344 345 348 339 336 335 332 330 328 323 326 331 334 338 341 342 343 343 342 341 341 339 337 335 331 328 327 328 327
319 345 352 352 349 349 349 349 347 345 343 341 337 335 335 333 335 336 335 334 331 330 328 324 326 333 337 340 343 345 344 343 343 341 340 337 336 334 332 329 328 328 327
315 327 350 352 351 349 349 349 348 346 345 343 342 340 335 331 330 333 334 333 332 334 330 327 330 336 339 341 345 346 345 344 342 342 339 335 335 334 332 329 327 328 327
314 322 340 350 352 350 349 348 348 347 345 344 342 342 338 334 331 332 332 332 331 335 333 330 334 338 340 342 346 345 344 344 343 340 335 335 335 334 332 330 327 327 327
312 314 329 348 351 351 349 348 348 346 345 344 342 340 338 335 333 332 331 331 332 338 336 332 334 337 339 345 345 344 343 343 338 335 335 335 333 333 331 330 330 329 328
313 312 315 334 347 349 348 348 347 346 346 343 342 340 339 336 334 331 330 334 338 340 337 335 338 340 342 343 340 340 336 334 333 332 332 331 330 330 330 330 329 327 327
314 315 314 319 340 347 347 346 345 345 345 344 342 341 340 337 333 329 331 334 341 342 340 339 339 340 344 340 337 332 327 331 332 332 331 331 328 321 320 319 319 319 322
313 313 317 328 341 345 345 344 344 344 343 343 341 340 338 337 334 329 337 337 341 342 344 344 341 343 339 337 330 332 334 326 317 317 318 317 316 316 316 316 316 316 314
310 312 316 336 341 344 344 342 342 341 340 339 339 339 337 336 334 330 336 340 340 341 342 346 345 344 337 331 328 330 330 335 323 316 314 315 316 316 315 314 312 309 307
310 311 315 325 342 343 342 341 341 340 340 339 338 337 336 335 334 331 333 341 342 343 343 347 347 344 339 333 328 329 327 328 330 326 316 313 312 310 308 307 307 306 306
312 309 310 324 340 342 342 341 341 340 340 339 338 338 338 335 335 333 327 339 343 345 343 343 345 343 338 333 329 329 327 328 327 326 322 313 310 305 304 303 303 302 301
315 316 312 333 344 344 342 342 342 342 341 341 341 341 340 340 338 336 332 337 343 345 343 345 345 341 335 332 330 329 326 323 320 318 317 314 312 309 304 303 302 300 299
Wind_Speed
27 36 33 30 28 26 25 26 26 28 29 29 29 28 28 27 26 26 27 26 23 20 16 14 13 13 12 11 12 13 14 15 15 16 15 13 11 9 10 10 9 9 8
39 38 35 33 29 27 26 26 26 27 28 28 29 29 28 28 26 26 26 24 22 18 16 14 14 12 11 12 13 14 15 15 15 15 13 11 10 8 7 6 6 6 5
43 41 37 34 31 28 27 26 26 28 29 29 30 29 28 27 26 26 26 24 20 17 15 15 13 12 11 12 14 15 16 15 14 13 10 9 8 7 5 4 3 2 2
44 42 39 35 32 29 27 26 26 27 28 29 29 28 27 26 26 27 26 23 19 17 16 14 13 12 12 12 14 15 15 14 12 10 7 6 5 4 4 2 1 1 2
39 41 40 37 34 31 28 26 25 25 27 28 28 28 27 27 27 27 25 22 19 17 15 13 12 12 12 13 13 14 13 10 8 5 1 2 4 3 2 2 3 4 5
41 38 38 36 34 31 29 27 26 26 27 28 28 28 28 27 27 26 24 21 18 16 14 12 12 12 13 13 13 13 11 8 5 1 5 2 5 4 1 3 4 6 7
41 39 39 36 35 33 30 27 26 27 27 28 29 28 28 27 26 25 23 20 17 15 14 12 12 12 12 12 12 11 10 7 3 3 5 6 5 4 2 5 7 7 7
28 31 35 36 34 33 30 28 26 26 27 28 29 28 26 26 25 23 21 19 17 15 13 12 12 12 11 11 10 10 9 6 1 3 3 6 5 4 4 6 7 7 6
21 27 30 31 33 31 28 27 26 25 25 27 27 26 26 25 23 22 20 19 16 14 13 12 11 11 10 9 9 8 7 5 2 2 5 5 5 3 4 4 6 6 5
18 18 13 21 28 31 29 27 27 26 25 25 25 25 25 24 22 21 19 17 15 14 12 12 11 11 10 8 7 6 6 4 4 4 5 5 4 3 4 6 7 7 6
9 13 13 14 20 25 30 29 27 27 26 25 25 25 24 23 22 20 18 17 15 14 12 11 10 9 9 8 7 5 6 5 4 3 4 6 3 3 5 6 6 6 7
10 14 17 18 21 25 26 27 29 28 29 28 28 28 26 24 21 19 18 16 15 13 12 11 10 9 9 9 8 7 6 4 2 2 7 6 3 2 4 5 5 5 6
17 16 20 21 25 31 25 27 29 30 30 30 29 28 27 25 22 20 18 17 16 14 12 12 11 10 10 8 6 6 4 4 4 7 7 5 2 1 2 4 5 4 5
22 31 31 29 28 27 29 33 29 33 32 31 31 30 27 22 25 23 21 19 17 15 14 13 12 11 9 7 5 5 5 4 4 6 6 3 2 1 1 3 4 3 5
24 30 35 36 36 34 27 27 31 33 34 37 35 32 25 23 26 27 24 21 18 16 15 14 13 13 9 6 3 3 6 6 7 7 7 4 3 2 2 2 1 2 3
19 25 33 36 40 38 33 31 28 28 31 33 37 38 36 34 33 30 27 24 20 18 15 14 12 11 9 5 2 2 5 8 8 7 6 4 4 3 3 3 2 1 3
26 23 27 34 40 40 37 33 28 30 25 31 31 34 36 36 34 32 28 26 22 18 16 14 12 10 8 5 4 3 6 9 9 8 5 5 5 4 3 3 3 4 4
28 21 25 30 37 41 40 39 34 30 32 33 34 32 34 35 33 33 31 27 23 20 18 16 14 10 7 6 4 5 6 8 9 7 4 5 4 4 4 4 5 8 8
28 28 25 29 33 40 40 39 36 37 34 37 36 35 34 35 33 33 31 27 24 22 20 19 15 12 8 7 8 7 8 10 7 5 6 5 4 3 4 4 5 8 10
22 30 30 29 35 36 33 34 34 37 39 39 38 37 35 35 34 33 32 27 23 22 21 19 17 12 10 11 10 10 7 6 6 5 4 3 2 3 3 2 2 1 1
18 24 30 27 29 34 34 34 32 35 38 40 39 36 34 35 35 34 33 30 24 22 21 19 18 14 15 14 13 13 14 10 8 6 6 8 9 9 9 9 8 6 5
19 21 24 27 29 37 36 36 31 36 36 44 41 34 34 35 37 38 35 32 28 24 21 21 22 20 12 16 7 6 3 4 14 13 13 13 11 9 10 9 7 6 4
17 20 25 27 31 37 38 27 22 26 22 25 34 38 40 37 37 40 38 34 30 26 22 21 25 26 15 13 12 5 2 3 5 7 12 12 12 11 9 7 6 5 6
24 21 25 27 31 35 35 32 29 32 27 31 34 37 37 37 37 39 40 35 31 28 25 25 27 26 19 15 10 6 4 7 3 3 5 10 13 10 8 8 7 7 7
7 13 24 28 31 30 33 32 34 29 32 28 33 37 36 36 39 42 42 37 32 28 28 29 29 26 21 18 12 8 4 5 5 3 3 3 8 7 8 8 8 8 9
8 6 8 15 27 31 37 37 33 34 30 24 27 27 34 37 38 35 38 39 32 31 31 29 29 24 22 18 13 10 8 4 4 3 2 2 4 6 4 6 8 11 13
Wind_Direction
167 165 166 168 167 158 152 149 147 147 149 149 148 147 147 148 150 152 151 149 149 144 138 133 131 134 135 137 137 136 135 131 128 128 118 112 109 119 113 116 117 117 115
165 167 167 168 168 161 157 153 153 153 153 155 155 153 152 152 153 154 154 153 151 149 145 140 138 136 136 137 137 136 133 130 129 128 126 122 113 122 125 119 119 118 115
167 167 167 169 168 165 162 158 158 159 160 159 157 157 157 157 157 157 156 154 152 149 145 142 139 137 133 135 136 134 131 128 127 125 129 127 125 121 131 122 118 119 109
169 168 167 170 169 168 165 163 162 163 164 163 163 163 163 161 160 160 158 156 153 148 145 143 140 138 135 136 135 134 135 125 121 117 118 126 122 120 117 108 30 321 319
170 170 169 171 172 171 168 168 166 165 165 167 167 166 166 164 163 163 162 160 157 151 147 144 141 141 141 142 141 139 139 132 126 122 140 210 185 134 73 19 341 317 308
175 173 172 172 173 173 170 171 168 166 167 168 169 168 167 166 166 166 166 164 163 159 155 152 149 146 147 147 146 145 143 138 128 69 329 236 197 178 22 346 341 325 311
175 175 174 175 176 175 174 173 171 169 170 171 170 170 170 169 169 168 170 170 170 165 160 157 152 149 148 150 154 155 153 151 129 26 40 117 129 141 35 1 359 347 330
174 175 175 178 179 178 177 175 175 173 173 173 172 173 173 172 171 171 172 173 171 167 165 159 155 152 151 151 159 164 163 163 161 9 91 126 113 83 44 24 5 355 339
177 177 177 181 182 181 180 179 178 177 177 176 176 176 176 174 174 174 176 174 173 172 167 163 159 154 152 153 162 167 165 172 169 82 130 134 106 76 45 12 352 349 12
173 176 177 186 186 183 182 183 182 182 180 181 181 180 179 177 178 178 179 179 179 177 173 169 165 160 154 156 155 160 158 164 149 125 126 124 116 81 32 17 9 23 41
165 178 188 191 197 192 185 184 188 186 185 185 186 186 184 183 182 183 185 185 185 182 178 174 170 163 156 150 149 150 138 148 155 146 151 145 118 60 26 18 32 47 53
176 194 197 198 198 198 194 187 189 187 187 187 188 188 190 189 190 191 191 191 190 189 183 178 174 165 153 143 141 138 142 159 177 183 153 145 116 48 30 37 47 56 65
202 210 209 206 204 197 197 193 192 191 190 190 192 193 195 195 196 200 199 197 196 195 192 186 179 171 158 158 158 153 154 149 134 143 147 142 130 357 49 47 69 74 59
209 223 220 211 207 210 199 198 196 192 194 192 195 197 194 197 201 203 205 202 202 202 198 192 185 178 172 169 168 184 179 173 144 139 143 161 216 235 121 80 85 54 41
223 223 219 217 210 209 202 201 199 196 199 195 195 199 196 200 201 204 206 207 206 208 204 198 186 179 183 183 170 192 200 169 158 156 161 194 211 192 165 139 110 24 29
257 234 227 216 213 206 205 204 204 202 199 198 199 203 204 207 206 205 206 208 209 212 209 205 194 188 193 193 202 171 183 177 176 174 181 202 192 198 192 206 225 287 332
270 249 225 222 213 207 204 210 211 207 204 205 205 207 210 209 207 207 209 210 210 212 214 209 199 197 207 222 244 206 202 187 184 185 195 208 195 197 205 238 265 273 295
267 248 239 219 213 210 204 207 208 210 209 212 215 218 217 214 210 209 211 213 213 213 214 214 204 207 213 228 210 195 192 204 194 199 207 208 201 212 221 249 266 271 281
272 254 237 223 214 212 207 205 202 205 208 215 220 223 221 217 214 215 215 215 214 216 215 215 211 210 213 196 191 178 165 169 184 200 194 195 211 221 237 252 271 267 267
291 263 248 229 220 211 199 200 200 203 210 218 220 223 223 219 217 216 219 219 212 212 212 212 214 205 215 167 140 144 127 150 165 173 173 157 170 210 227 265 318 30 357
278 280 257 244 228 197 191 190 195 200 205 213 218 219 222 221 220 217 219 219 214 210 214 220 220 219 176 170 132 103 76 85 108 123 138 144 125 110 102 92 88 89 89
275 261 260 243 225 202 197 199 200 200 204 210 212 216 221 224 223 220 218 217 214 214 220 227 216 180 172 181 182 138 153 88 76 90 111 107 112 109 99 100 101 87 63
265 251 248 237 226 209 204 197 202 190 196 196 206 215 221 222 224 222 220 218 217 217 221 219 197 186 164 188 193 161 140 185 130 83 76 98 104 106 110 104 77 48 14
268 250 233 240 229 212 200 191 193 191 191 201 205 210 217 220 222 224 224 220 222 223 223 208 197 196 193 178 167 185 144 136 155 162 78 90 111 106 97 80 58 36 9
329 261 241 235 225 210 201 198 194 198 205 203 202 205 211 221 223 222 220 221 222 228 223 211 198 203 209 188 172 157 138 130 137 148 158 150 111 105 84 66 51 29 10
355 345 292 240 227 212 207 200 201 203 202 204 198 201 205 214 214 215 216 219 220 222 219 208 199 202 199 191 182 171 164 155 171 153 118 155 197 179 111 55 31 12 360